1496847600.84,20580,19.25,73852.3,4.19,0.47,0.51,0,*79
1496847602.06,20581,19.25,73854.3,4.19,0.55,0.59,0,*73
1496847603.27,20582,19.25,73858.0,4.19,0.47,0.51,0,*7B
1496847604.48,20583,19.25,73852.5,4.19,0.47,0.41,0,*7B
1496847605.73,20584,19.25,73854.5,4.21,0.51,0.55,0,*75
1496847606.94,20585,19.25,73856.3,4.19,0.51,0.51,0,*7B
1496847608.15,20586,19.25,73856.0,4.19,0.59,0.63,0,*71
1496847609.37,20587,19.25,73854.8,4.19,0.47,0.63,0,*7F
1496847610.58,20588,19.25,73854.3,4.19,0.47,0.41,0,*70
1496847611.79,20589,19.31,73856.3,4.19,0.41,0.47,0,*71
1496847613.01,20590,19.25,73854.0,4.19,0.41,0.59,0,*76
1496847614.22,20591,19.25,73852.0,4.19,0.47,0.59,0,*71
1496847615.43,20592,19.25,73858.8,4.19,0.51,0.63,0,*7C
1496847616.65,20593,19.25,73852.0,4.19,0.41,0.47,0,*7A
1496847617.87,20594,19.25,73852.0,4.19,0.51,0.59,0,*73
1496847619.08,20595,19.25,73854.8,4.19,0.47,0.51,0,*7D
1496847620.3,20596,19.25,73852.8,4.19,0.47,0.47,0,*79
1496847621.55,20597,19.25,73852.3,4.21,0.55,0.55,0,*73
1496847622.76,20598,19.25,73854.3,4.19,0.51,0.37,0,*77
1496847623.97,20599,19.25,73856.3,4.19,0.47,0.41,0,*70
1496847625.18,20600,19.25,73852.0,4.19,0.37,0.41,0,*74
1496847626.39,20601,19.25,73854.5,4.19,0.37,0.37,0,*74
1496847627.59,20602,19.25,73858.0,4.19,0.13,0.25,0,*72
1496847628.8,20603,19.25,73856.3,4.19,0.25,0.41,0,*74
1496847630.01,20604,19.25,73856.3,4.19,0.37,0.51,0,*71
1496847631.25,20605,19.25,73856.3,4.21,0.29,0.37,0,*74
1496847632.47,20606,19.25,73856.3,4.19,0.25,0.47,0,*77
1496847633.68,20607,19.25,73854.8,4.19,0.41,0.59,0,*7B
1496847634.89,20608,19.25,73854.5,4.19,0.37,0.51,0,*7D
1496847636.11,20609,19.31,73856.8,4.19,0.47,0.59,0,*73
1496847637.32,20610,19.25,73856.0,4.19,0.47,0.59,0,*7B
1496847638.54,20611,19.25,73856.3,4.19,0.47,0.51,0,*72
1496847639.76,20612,19.25,73856.0,4.19,0.47,0.51,0,*71
1496847640.96,20613,19.25,73858.8,4.19,0.25,0.33,0,*70
1496847642.17,20614,19.25,73858.0,4.19,0.37,0.37,0,*70
1496847643.38,20615,19.25,73854.5,4.21,0.43,0.51,0,*79
1496847644.63,20616,19.25,73854.0,4.17,0.47,0.41,0,*7A
1496847645.86,20617,19.31,73858.8,4.17,0.41,0.41,0,*7D
1496847647.11,20618,19.25,73852.3,4.17,0.25,0.21,0,*76
1496847648.35,20619,19.25,73856.0,4.17,0.41,0.37,0,*72
1496847649.59,20620,19.25,73858.3,4.17,0.41,0.37,0,*78
1496847650.82,20621,19.25,73856.0,4.17,0.33,0.33,0,*78
1496847652.03,20622,19.31,73858.5,4.19,0.25,0.33,0,*72
1496847653.24,20623,19.25,73858.0,4.19,0.25,0.33,0,*73
1496847654.48,20624,19.25,73856.3,4.17,0.37,0.37,0,*7D
1496847655.72,20625,19.25,73856.3,4.17,0.25,0.37,0,*7F
1496847656.96,20626,19.31,73858.5,4.17,0.25,0.25,0,*7F
1496847658.2,20627,19.25,73856.3,4.17,0.33,0.25,0,*79
1496847659.43,20628,19.25,73856.5,4.17,0.33,0.37,0,*75
1496847660.67,20629,19.25,73852.5,4.17,0.25,0.25,0,*70
1496847661.91,20630,19.25,73858.3,4.17,0.13,0.13,0,*78
1496847663.15,20631,19.25,73856.5,4.17,0.13,0.13,0,*79
1496847664.38,20632,19.25,73858.0,4.17,0.21,0.25,0,*7E
1496847665.62,20633,19.25,73856.8,4.13,0.21,0.29,0,*77
1496847666.86,20634,19.25,73858.0,4.17,0.33,0.33,0,*7C
1496847668.1,20635,19.25,73854.5,4.17,0.25,0.21,0,*79
1496847669.34,20636,19.25,73854.5,4.17,0.25,0.33,0,*79
1496847670.58,20637,19.25,73858.0,4.13,0.21,0.17,0,*7E
1496847671.81,20638,19.31,73860.5,4.13,0.33,0.33,0,*74
1496847673.06,20639,19.25,73858.0,4.17,0.47,0.47,0,*71
1496847674.3,20640,19.25,73856.3,4.17,0.47,0.47,0,*7F
1496847675.54,20641,19.25,73858.5,4.17,0.41,0.41,0,*7E
1496847676.78,20642,19.25,73856.8,4.17,0.33,0.21,0,*7E
1496847678.02,20643,19.31,73860.5,4.13,0.33,0.29,0,*73
1496847679.26,20644,19.25,73858.0,4.17,0.41,0.37,0,*7A
1496847680.5,20645,19.25,73856.3,4.17,0.41,0.37,0,*7B
1496847681.74,20646,19.25,73854.8,4.17,0.47,0.41,0,*7F
1496847682.99,20647,19.25,73858.0,4.17,0.51,0.47,0,*7F
1496847684.19,20648,19.25,73858.8,4.13,0.43,0.37,0,*70
1496847685.44,20649,19.25,73858.3,4.17,0.51,0.41,0,*77
1496847686.67,20650,19.25,73858.5,4.17,0.37,0.25,0,*7D
1496847687.91,20651,19.25,73858.5,4.13,0.37,0.21,0,*7C
1496847689.12,20652,19.25,73856.3,4.13,0.43,0.29,0,*74
1496847690.33,20653,19.25,73858.3,4.13,0.43,0.29,0,*75
1496847691.56,20654,19.25,73858.5,4.17,0.37,0.33,0,*7E
1496847692.8,20655,19.25,73856.3,4.13,0.37,0.33,0,*7B
1496847694.0,20656,19.25,73858.3,4.13,0.43,0.33,0,*7B
1496847695.24,20657,19.25,73858.0,4.17,0.47,0.41,0,*7F
1496847696.49,20658,19.25,73858.0,4.13,0.47,0.37,0,*75
1496847697.73,20659,19.25,73858.3,4.13,0.47,0.47,0,*73
1496847698.97,20660,19.25,73856.0,4.13,0.33,0.29,0,*72
1496847700.2,20661,19.25,73856.8,4.13,0.33,0.21,0,*7B
1496847701.44,20662,19.25,73858.3,4.13,0.33,0.33,0,*7B
1496847702.65,20663,19.25,73856.8,4.11,0.29,0.25,0,*74
1496847703.86,20664,19.25,73856.5,4.11,0.25,0.17,0,*7E
1496847705.07,20665,19.25,73856.5,4.11,0.17,0.17,0,*7E
1496847706.28,20666,19.25,73860.0,4.11,0.25,0.25,0,*7D
1496847707.52,20667,19.25,73858.0,4.09,0.25,0.29,0,*79
1496847708.73,20668,19.25,73858.8,4.11,0.13,0.17,0,*77
1496847709.97,20669,19.25,73856.3,4.09,0.13,0.13,0,*7B
1496847711.15,20670,19.25,73858.3,4.11,0.13,0.05,0,*4D
1496847712.37,20671,19.25,73858.3,4.09,0.13,0.05,0,*45
1496847713.58,20672,19.25,73860.5,4.11,0.29,0.17,0,*75
1496847714.82,20673,19.25,73860.5,4.09,0.33,0.29,0,*7B
1496847716.06,20674,19.25,73858.3,4.09,0.41,0.29,0,*79
1496847717.3,20675,19.25,73860.8,4.09,0.29,0.25,0,*7A
1496847718.51,20676,19.25,73860.0,4.09,0.43,0.41,0,*77
1496847719.75,20677,19.25,73858.5,4.09,0.51,0.41,0,*75
1496847720.96,20678,19.25,73856.8,4.09,0.43,0.41,0,*79
1496847722.17,20679,19.25,73860.5,4.09,0.43,0.33,0,*7D
1496847723.4,20680,19.25,73858.8,4.09,0.41,0.33,0,*79
1496847724.59,20681,19.25,73858.3,4.11,0.17,0.05,0,*47
1496847725.83,20682,19.25,73862.3,4.09,0.29,0.25,0,*72
1496847727.05,20683,19.25,73862.5,4.07,0.29,0.21,0,*79
1496847728.27,20684,19.25,73860.0,4.07,0.25,0.21,0,*72
1496847729.48,20685,19.25,73860.0,4.07,0.41,0.25,0,*75
1496847730.69,20686,19.25,73856.0,4.07,0.37,0.25,0,*77
1496847731.9,20687,19.25,73860.0,4.07,0.25,0.13,0,*70
1496847733.11,20688,19.25,73860.0,4.07,0.29,0.25,0,*76
1496847734.33,20689,19.25,73858.0,4.07,0.37,0.21,0,*7C
1496847735.52,20690,19.25,73860.8,4.07,0.25,0.09,0,*4D
1496847736.73,20691,19.25,73856.0,4.05,0.13,0.01,0,*43
1496847737.92,20692,19.25,73858.5,4.07,0.25,0.09,0,*4F
1496847739.14,20693,19.25,73862.0,4.07,0.29,0.21,0,*78
1496847740.36,20694,19.25,73860.3,4.05,0.21,0.09,0,*4F
1496847741.6,20695,19.25,73858.0,4.05,0.21,0.13,0,*75
1496847742.81,20696,19.25,73856.5,4.07,0.21,0.13,0,*74
1496847744.06,20697,19.25,73858.3,4.05,0.13,0.21,0,*77
1496847745.22,20698,19.25,73856.0,4.07,0.09,0.09,0,*7B
1496847746.4,20699,19.25,73862.3,4.07,-0.11,-0.03,0,*49
1496847747.64,20700,19.25,73858.3,4.05,0.21,0.13,0,*78
1496847748.88,20701,19.25,73860.5,4.05,0.29,0.25,0,*74
1496847750.13,20702,19.31,73860.8,4.05,0.25,0.21,0,*7F
1496847751.31,20703,19.25,73860.8,4.03,0.17,0.05,0,*4F
1496847752.5,20704,19.25,73856.5,4.05,0.09,0.01,0,*75
1496847753.71,20705,19.25,73860.0,4.05,0.13,0.01,0,*4F
1496847754.93,20706,19.25,73862.3,4.05,0.13,0.09,0,*44
1496847756.14,20707,19.25,73860.8,4.01,0.13,0.01,0,*49
1496847757.32,20708,19.25,73856.3,4.01,0.05,0.01,0,*71
1496847758.49,20709,19.25,73860.3,4.03,0.05,-0.03,0,*5D
1496847759.66,20710,19.25,73856.0,4.03,0.09,-0.03,0,*59
1496847760.84,20711,19.25,73856.0,4.03,0.21,0.05,0,*49
1496847762.05,20712,19.25,73862.0,4.01,-0.07,-0.11,0,*49
1496847763.25,20713,19.25,73860.5,4.03,-0.23,-0.29,0,*77
1496847764.46,20714,19.25,73860.8,4.03,-0.27,-0.37,0,*7B
1496847765.7,20715,19.25,73856.8,4.01,-0.23,-0.41,0,*7D
1496847766.9,20716,19.25,73860.0,4.01,-0.33,-0.53,0,*7C
1496847768.08,20717,19.25,73858.3,3.99,-0.33,-0.53,0,*7B
1496847769.26,20718,19.25,73856.3,3.99,-0.29,-0.45,0,*78
1496847770.45,20719,19.25,73856.5,3.99,-0.33,-0.41,0,*76
1496847771.64,20720,19.25,73860.8,3.99,-0.29,-0.41,0,*77
1496847772.87,20721,19.25,73862.3,3.97,-0.27,-0.37,0,*77
1496847774.08,20722,19.25,73856.5,3.97,-0.15,-0.33,0,*71
1496847775.32,20723,19.25,73856.8,3.97,-0.11,-0.23,0,*75
1496847776.5,20724,19.25,73858.8,3.95,0.01,-0.03,0,*5E
1496847777.72,20725,19.25,73858.3,3.95,-0.15,-0.23,0,*75
1496847778.95,20726,19.25,73858.3,3.95,-0.27,-0.37,0,*72
1496847780.18,20727,19.25,73862.8,3.95,-0.27,-0.37,0,*73
1496847781.4,20728,19.25,73860.5,3.95,-0.23,-0.33,0,*7C
1496847782.63,20729,19.25,73856.8,3.95,-0.23,-0.33,0,*7D
1496847783.83,20730,19.25,73860.5,3.95,-0.33,-0.45,0,*75
1496847785.0,20731,19.25,73862.3,3.93,-0.19,-0.29,0,*70
1496847786.18,20732,19.25,73856.5,3.93,-0.29,-0.41,0,*7E
1496847787.36,20733,19.25,73858.0,3.93,-0.29,-0.41,0,*7F
1496847788.54,20734,19.31,73862.3,3.93,-0.19,-0.37,0,*7A
1496847789.7,20735,19.25,73860.5,3.93,0.05,-0.07,0,*58
1496847790.86,20736,19.25,73856.8,3.89,0.05,0.01,0,*7B
1496847792.03,20737,19.25,73862.8,3.89,0.05,0.05,0,*7E
1496847793.21,20738,19.25,73862.5,3.89,-0.07,-0.11,0,*46
1496847794.37,20739,19.25,73856.8,3.89,0.01,-0.19,0,*64
1496847795.56,20740,19.25,73858.8,3.89,-0.11,-0.19,0,*76
1496847796.73,20741,19.25,73860.0,3.93,-0.07,-0.15,0,*47
1496847797.9,20742,19.25,73860.3,3.93,0.05,-0.07,0,*58
1496847799.06,20743,19.25,73862.5,3.93,0.05,0.05,0,*76
1496847800.26,20744,19.25,73860.5,3.93,0.21,0.13,0,*70
1496847801.47,20745,19.25,73862.5,3.93,0.21,0.13,0,*71
1496847802.65,20746,19.25,73860.3,3.93,0.13,0.05,0,*44
1496847803.81,20747,19.25,73862.5,3.93,0.09,0.05,0,*7E
1496847804.99,20748,19.25,73856.8,3.93,-0.15,-0.19,0,*71
1496847806.21,20749,19.25,73856.8,3.93,-0.27,-0.27,0,*7C
1496847807.39,20750,19.25,73860.0,3.89,-0.29,-0.33,0,*74
1496847808.56,20751,19.25,73860.8,3.89,-0.29,-0.29,0,*7E
1496847809.75,20752,19.25,73860.3,3.89,-0.41,-0.45,0,*79
1496847810.92,20753,19.25,73860.5,3.89,-0.33,-0.45,0,*7D
1496847812.11,20754,19.25,73860.3,3.89,-0.41,-0.45,0,*7F
1496847813.29,20755,19.25,73862.5,3.89,-0.33,-0.41,0,*7F
1496847814.5,20756,19.25,73860.5,3.87,-0.41,-0.45,0,*73
1496847815.7,20757,19.25,73860.3,3.87,-0.45,-0.41,0,*72
1496847816.95,20758,19.25,73862.3,3.87,-0.23,-0.23,0,*79
1496847818.17,20759,19.25,73860.8,3.87,-0.29,-0.23,0,*72
1496847819.39,20760,19.25,73862.3,3.87,-0.23,-0.29,0,*78
1496847820.59,20761,19.25,73860.0,3.87,-0.07,-0.11,0,*44
1496847821.77,20762,19.25,73862.3,3.87,0.01,0.01,0,*70
1496847822.98,20763,19.25,73860.3,3.87,-0.19,-0.11,0,*79
1496847824.16,20764,19.25,73864.5,3.85,-0.03,-0.11,0,*47
1496847825.31,20765,19.25,73860.8,3.85,0.01,0.01,0,*75
1496847826.52,20766,19.25,73860.3,3.85,-0.23,-0.15,0,*73
1496847827.74,20767,19.25,73862.8,3.85,-0.27,-0.27,0,*77
1496847828.97,20768,19.25,73858.3,3.85,-0.23,-0.23,0,*78
1496847830.15,20769,19.25,73862.0,3.85,-0.11,-0.11,0,*79
1496847831.34,20770,19.25,73860.3,3.85,-0.11,-0.15,0,*75
1496847832.56,20771,19.25,73860.3,3.85,-0.23,-0.27,0,*74
1496847833.77,20772,19.25,73858.0,3.85,-0.11,-0.23,0,*72
1496847834.99,20773,19.25,73860.0,3.83,-0.15,-0.23,0,*71
1496847836.16,20774,19.25,73862.0,3.85,0.01,-0.11,0,*69
1496847837.35,20775,19.25,73860.3,3.83,0.01,-0.15,0,*6A
1496847838.55,20776,19.25,73862.8,3.85,-0.11,-0.27,0,*72
1496847839.75,20777,19.25,73862.0,3.85,-0.15,-0.27,0,*77
1496847840.96,20778,19.25,73858.8,3.85,-0.23,-0.37,0,*7C
1496847842.16,20779,19.25,73862.5,3.83,-0.03,-0.15,0,*49
1496847843.33,20780,19.25,73860.8,3.85,0.05,-0.03,0,*55
1496847844.49,20781,19.25,73860.0,3.85,0.01,-0.03,0,*50
1496847845.69,20782,19.25,73860.0,3.83,-0.03,-0.15,0,*4D
1496847846.89,20783,19.25,73860.8,3.85,-0.11,-0.23,0,*7C
1496847848.05,20784,19.25,73860.5,3.85,0.01,-0.03,0,*55
1496847849.24,20785,19.25,73858.8,3.83,0.05,-0.03,0,*56
1496847850.44,20786,19.25,73860.8,3.83,-0.03,-0.15,0,*49
1496847851.65,20787,19.25,73862.0,3.83,0.13,-0.03,0,*63
1496847852.84,20788,19.25,73862.3,3.83,0.05,-0.03,0,*5B
1496847854.07,20789,19.25,73860.3,3.83,-0.23,-0.33,0,*70
1496847855.25,20790,19.25,73862.5,3.85,-0.33,-0.49,0,*72
1496847856.45,20791,19.25,73860.8,3.83,-0.37,-0.49,0,*71
1496847857.65,20792,19.25,73860.8,3.83,-0.37,-0.45,0,*7E
1496847858.86,20793,19.25,73862.5,3.83,-0.37,-0.49,0,*73
1496847860.04,20794,19.25,73862.3,3.81,-0.41,-0.49,0,*77
1496847861.22,20795,19.25,73860.8,3.81,-0.29,-0.49,0,*78
1496847862.43,20796,19.25,73862.5,3.81,-0.27,-0.37,0,*7C
1496847863.63,20797,19.25,73862.0,3.79,-0.19,-0.29,0,*78
1496847864.84,20798,19.25,73860.8,3.79,-0.33,-0.41,0,*71
1496847866.06,20799,19.25,73860.5,3.79,-0.23,-0.29,0,*7F
1496847867.26,20800,19.25,73856.8,3.79,-0.03,-0.07,0,*7E
1496847868.45,20801,19.25,73862.8,3.81,0.21,0.09,0,*46
1496847869.61,20802,19.25,73858.3,3.81,0.01,-0.07,0,*54
1496847870.81,20803,19.25,73862.3,3.79,-0.29,-0.41,0,*77
1496847872.02,20804,19.25,73856.8,3.79,-0.41,-0.53,0,*7D
1496847873.2,20805,19.25,73860.3,3.77,-0.45,-0.57,0,*72
1496847874.42,20806,19.25,73862.3,3.77,-0.23,-0.23,0,*72
1496847875.59,20807,19.25,73854.3,3.77,-0.03,-0.07,0,*77
1496847876.78,20808,19.25,73862.0,3.79,0.09,0.09,0,*72
1496847877.95,20809,19.25,73858.5,3.77,-0.03,-0.03,0,*7D
1496847879.11,20810,19.25,73860.8,3.77,0.09,0.09,0,*75
1496847880.3,20811,19.25,73860.0,3.77,0.17,0.09,0,*4B
1496847881.51,20812,19.25,73858.3,3.79,0.17,0.09,0,*46
1496847882.7,20813,19.25,73856.3,3.79,0.05,0.05,0,*78
1496847883.91,20814,19.25,73856.8,3.77,0.21,0.17,0,*74
1496847885.12,20815,19.25,73862.0,3.81,0.25,0.21,0,*7D
1496847886.36,20816,19.25,73856.5,3.79,0.29,0.21,0,*75
1496847887.61,20817,19.25,73860.5,3.79,0.29,0.21,0,*74
1496847888.85,20818,19.25,73860.0,3.79,0.29,0.21,0,*7B
1496847890.06,20819,19.25,73860.8,3.77,0.29,0.17,0,*71
1496847891.26,20820,19.25,73858.0,3.81,0.33,0.33,0,*7F
1496847892.5,20821,19.25,73862.3,3.79,0.29,0.21,0,*71
1496847893.72,20822,19.25,73860.3,3.77,0.29,0.21,0,*7C
1496847894.96,20823,19.25,73858.3,3.79,0.29,0.29,0,*7B
1496847896.19,20824,19.25,73860.3,3.79,0.33,0.41,0,*79
1496847897.42,20825,19.25,73856.8,3.79,0.33,0.33,0,*7D
1496847898.62,20826,19.25,73860.8,3.79,0.43,0.41,0,*7C
1496847899.84,20827,19.25,73860.3,3.79,0.51,0.43,0,*7C
1496847901.08,20828,19.25,73858.5,3.79,0.51,0.51,0,*70
1496847902.27,20829,19.25,73858.3,3.79,0.43,0.43,0,*71
1496847903.51,20830,19.25,73858.3,3.79,0.63,0.51,0,*78
1496847904.75,20831,19.25,73856.5,3.79,0.55,0.51,0,*7C
1496847905.96,20832,19.25,73860.0,3.81,0.67,0.47,0,*7E
1496847907.2,20833,19.25,73858.3,3.79,0.41,0.29,0,*74
1496847908.43,20834,19.25,73858.8,3.79,0.51,0.33,0,*79
1496847909.67,20835,19.25,73858.0,3.79,0.51,0.33,0,*78
1496847910.91,20836,19.25,73858.3,3.79,0.55,0.41,0,*7A
1496847912.13,20837,19.25,73856.5,3.81,0.55,0.47,0,*7A
1496847913.31,20838,19.25,73860.5,3.77,0.43,0.33,0,*78
1496847914.55,20839,19.25,73856.5,3.79,0.33,0.21,0,*73
1496847915.75,20840,19.25,73856.8,3.79,0.43,0.41,0,*7C
1496847916.98,20841,19.25,73856.0,3.79,0.33,0.33,0,*7F
1496847918.23,20842,19.25,73856.3,3.79,0.29,0.21,0,*74
1496847919.46,20843,19.25,73858.0,3.79,0.29,0.29,0,*7D
1496847920.69,20844,19.25,73858.5,3.79,0.33,0.33,0,*7A
1496847921.91,20845,19.25,73856.3,3.79,0.43,0.51,0,*78
1496847923.15,20846,19.25,73856.5,3.79,0.51,0.51,0,*78
1496847924.36,20847,19.25,73858.3,3.79,0.43,0.51,0,*7A
1496847925.54,20848,19.25,73856.5,3.77,0.43,0.51,0,*7B
1496847926.76,20849,19.25,73856.5,3.77,0.51,0.55,0,*7D
1496847927.97,20850,19.25,73858.0,3.79,0.51,0.43,0,*7C
1496847929.17,20851,19.25,73856.5,3.77,0.51,0.43,0,*73
1496847930.36,20852,19.25,73856.8,3.77,0.55,0.43,0,*74
1496847931.57,20853,19.25,73856.5,3.77,0.63,0.55,0,*77
1496847932.78,20854,19.25,73858.5,3.77,0.51,0.41,0,*74
1496847933.96,20855,19.25,73856.5,3.77,0.43,0.41,0,*76
1496847935.16,20856,19.25,73858.5,3.77,0.55,0.43,0,*70
1496847936.39,20857,19.25,73862.0,3.75,0.29,0.17,0,*79
1496847937.6,20858,19.25,73856.0,3.77,0.37,0.33,0,*7D
1496847938.81,20859,19.25,73856.5,3.77,0.51,0.41,0,*79
1496847940.02,20860,19.25,73860.3,3.77,0.71,0.67,0,*75
1496847941.25,20861,19.25,73858.8,3.75,0.67,0.63,0,*75
1496847942.46,20862,19.25,73856.8,3.77,0.63,0.55,0,*75
1496847943.7,20863,19.25,73856.5,3.75,0.63,0.63,0,*73
1496847944.93,20864,19.25,73858.3,3.75,0.67,0.75,0,*77
1496847946.14,20865,19.25,73858.5,3.77,0.71,0.79,0,*7F
1496847947.37,20866,19.25,73860.5,3.75,0.63,0.63,0,*76
1496847948.58,20867,19.25,73856.8,3.77,0.67,0.67,0,*75
1496847949.79,20868,19.25,73858.3,3.77,0.41,0.51,0,*7B
1496847951.03,20869,19.25,73856.0,3.75,0.51,0.41,0,*78
1496847952.26,20870,19.25,73856.0,3.75,0.67,0.59,0,*7C
1496847953.49,20871,19.25,73856.5,3.75,0.67,0.63,0,*74
1496847954.7,20872,19.25,73858.0,3.77,0.67,0.63,0,*75
1496847955.93,20873,19.25,73856.8,3.75,0.75,0.75,0,*72
1496847957.14,20874,19.25,73860.8,3.77,0.67,0.79,0,*78
1496847958.35,20875,19.25,73856.3,3.77,0.63,0.63,0,*76
1496847959.59,20876,19.25,73858.3,3.75,0.59,0.47,0,*78
1496847960.82,20877,19.25,73858.8,3.75,0.63,0.59,0,*7F
1496847962.04,20878,19.25,73858.0,3.77,0.71,0.79,0,*73
1496847963.27,20879,19.25,73852.5,3.75,0.63,0.51,0,*79
1496847964.51,20880,19.25,73856.0,3.75,0.63,0.59,0,*77
1496847965.74,20881,19.25,73856.0,3.75,0.75,0.63,0,*78
1496847966.98,20882,19.25,73860.5,3.75,0.79,0.79,0,*7C
1496847968.2,20883,19.25,73858.0,3.77,0.83,0.79,0,*7A
1496847969.43,20884,19.25,73858.8,3.75,0.67,0.63,0,*7E
1496847970.67,20885,19.25,73854.8,3.75,0.79,0.75,0,*77
1496847971.92,20886,19.25,73858.0,3.75,0.79,0.75,0,*74
1496847973.13,20887,19.25,73858.0,3.77,0.83,0.79,0,*7E
1496847974.37,20888,19.25,73856.5,3.75,0.75,0.75,0,*76
1496847975.6,20889,19.25,73856.8,3.75,0.67,0.63,0,*73
1496847976.81,20890,19.25,73858.5,3.77,0.63,0.59,0,*74
1496847978.04,20891,19.25,73858.5,3.75,0.67,0.75,0,*7D
1496847979.27,20892,19.25,73860.3,3.77,0.91,0.91,0,*7F
1496847980.5,20893,19.25,73858.3,3.75,0.75,0.63,0,*7B
1496847981.71,20894,19.25,73856.5,3.77,0.71,0.67,0,*7E
1496847982.95,20895,19.25,73858.0,3.75,0.63,0.59,0,*73
1496847984.17,20896,19.25,73858.3,3.77,0.79,0.91,0,*7D
1496847985.42,20897,19.25,73858.8,3.75,0.87,0.87,0,*78
1496847986.67,20898,19.25,73858.3,3.75,0.91,0.91,0,*77
1496847987.89,20899,19.25,73858.0,3.77,0.91,0.91,0,*74
1496847989.13,20900,19.25,73856.0,3.75,0.75,0.79,0,*7B
1496847990.36,20901,19.25,73858.8,3.75,0.75,0.75,0,*76
1496847991.61,20902,19.25,73856.5,3.75,0.87,0.87,0,*75
1496847992.81,20903,19.25,73856.0,3.77,0.91,1.01,0,*4E
1496847994.02,20904,19.25,73858.0,3.75,0.87,0.97,0,*72
1496847995.24,20905,19.25,73858.3,3.75,0.87,0.97,0,*73
1496847996.45,20906,19.25,73854.8,3.75,0.91,0.97,0,*77
1496847997.68,20907,19.25,73856.3,3.77,0.91,0.91,0,*72
1496847998.88,20908,19.25,73856.5,3.75,0.97,1.01,0,*41
1496848000.13,20909,19.25,73856.3,3.75,0.91,0.91,0,*7E
1496848001.33,20910,19.25,73856.0,3.77,0.67,0.79,0,*7B
1496848002.58,20911,19.25,73856.8,3.75,0.87,0.87,0,*77
1496848003.82,20912,19.25,73858.8,3.75,0.87,0.91,0,*73
1496848005.02,20913,19.25,73858.5,3.77,0.95,1.01,0,*4B
1496848006.19,20914,19.25,73852.8,3.77,1.01,1.01,0,*70
1496848007.44,20915,19.25,73854.8,3.75,0.91,0.91,0,*73
1496848008.65,20916,19.25,73856.3,3.77,0.95,0.95,0,*72
1496848009.9,20917,19.25,73858.0,3.75,0.87,0.87,0,*71
1496848011.14,20918,19.25,73858.0,3.75,0.79,0.87,0,*7F
1496848012.38,20919,19.25,73856.3,3.75,0.87,0.87,0,*7F
1496848013.6,20920,19.25,73858.3,3.77,0.91,0.95,0,*73
1496848014.83,20921,19.25,73854.8,3.77,0.91,0.91,0,*76
1496848016.05,20922,19.25,73858.0,3.77,0.87,0.91,0,*72
1496848017.28,20923,19.25,73858.0,3.77,0.91,0.83,0,*77
1496848018.5,20924,19.25,73858.8,3.77,0.91,0.91,0,*73
1496848019.7,20925,19.25,73858.3,3.77,0.97,0.87,0,*73
1496848020.93,20926,19.25,73856.5,3.75,0.75,0.63,0,*74
1496848022.14,20927,19.25,73858.0,3.77,0.71,0.67,0,*77
1496848023.38,20928,19.25,73856.5,3.75,0.75,0.75,0,*7D
1496848024.6,20929,19.25,73856.0,3.77,0.83,0.91,0,*7D
1496848025.82,20930,19.25,73856.5,3.77,0.95,0.91,0,*72
1496848027.06,20931,19.25,73856.5,3.75,0.79,0.63,0,*7E
1496848028.3,20932,19.25,73856.8,3.75,0.59,0.47,0,*79
1496848029.51,20933,19.25,73856.3,3.77,0.67,0.55,0,*74
1496848030.75,20934,19.25,73858.3,3.75,0.75,0.75,0,*70
1496848031.96,20935,19.25,73858.3,3.77,0.71,0.63,0,*70
1496848033.2,20936,19.25,73860.0,3.75,0.75,0.51,0,*74
1496848034.4,20937,19.25,73856.0,3.77,0.75,0.67,0,*72
1496848035.64,20938,19.25,73860.5,3.75,0.75,0.63,0,*7B
1496848036.85,20939,19.25,73858.0,3.77,0.71,0.63,0,*7C
1496848038.06,20940,19.25,73862.5,3.77,0.71,0.63,0,*72
1496848039.28,20941,19.25,73860.8,3.77,0.91,0.79,0,*76
1496848040.53,20942,19.25,73858.3,3.75,0.87,0.87,0,*71
1496848041.77,20943,19.25,73862.3,3.75,0.87,0.79,0,*71
1496848042.98,20944,19.25,73862.5,3.77,0.71,0.63,0,*76
1496848044.22,20945,19.25,73856.8,3.75,0.59,0.47,0,*79
1496848045.45,20946,19.25,73858.8,3.75,0.67,0.51,0,*70
1496848046.67,20947,19.25,73856.8,3.77,0.91,0.79,0,*70
1496848047.91,20948,19.25,73856.3,3.75,0.87,0.79,0,*7A
1496848049.12,20949,19.25,73856.8,3.77,1.01,0.91,0,*40
1496848050.36,20950,19.25,73860.3,3.75,0.91,0.87,0,*75
1496848051.61,20951,19.25,73860.0,3.75,0.79,0.75,0,*7F
1496848052.85,20952,19.25,73862.3,3.75,0.79,0.79,0,*70
1496848054.05,20953,19.25,73858.0,3.77,1.01,0.91,0,*4B
1496848055.27,20954,19.25,73860.0,3.77,0.95,0.83,0,*73
1496848056.49,20955,19.25,73860.8,3.77,0.95,0.91,0,*71
1496848057.69,20956,19.25,73856.0,3.77,1.01,0.91,0,*4E
1496848058.91,20957,19.25,73862.3,3.77,0.95,0.91,0,*73
1496848060.12,20958,19.25,73860.5,3.81,0.95,0.95,0,*71
1496848061.34,20959,19.25,73862.5,3.79,1.05,0.95,0,*4F
1496848062.54,20960,19.25,73856.5,3.81,1.09,0.97,0,*4C
1496848063.75,20961,19.25,73860.0,3.79,0.95,0.97,0,*7E
1496848064.99,20962,19.25,73858.5,3.79,0.95,0.91,0,*7B
1496848066.24,20963,19.25,73862.5,3.79,0.95,0.91,0,*7A
1496848067.48,20964,19.25,73862.3,3.79,0.83,0.83,0,*79
1496848068.72,20965,19.25,73862.3,3.79,0.71,0.63,0,*7B
1496848069.94,20966,19.25,73864.0,3.81,0.71,0.55,0,*7A
1496848071.15,20967,19.25,73860.8,3.81,0.37,0.25,0,*7E
1496848072.38,20968,19.25,73860.3,3.83,0.59,0.51,0,*78
1496848073.59,20969,19.25,73862.8,3.81,0.71,0.67,0,*74
1496848074.81,20970,19.25,73862.8,3.81,0.79,0.83,0,*7E
1496848076.03,20971,19.25,73860.0,3.81,0.75,0.83,0,*73
1496848077.24,20972,19.25,73862.5,3.81,0.67,0.59,0,*74
1496848078.47,20973,19.25,73862.3,3.83,0.59,0.51,0,*72
1496848079.71,20974,19.25,73860.0,3.83,0.51,0.47,0,*7A
1496848080.95,20975,19.25,73862.3,3.83,0.59,0.51,0,*74
1496848082.19,20976,19.25,73860.8,3.83,0.71,0.63,0,*7C
1496848083.42,20977,19.25,73860.3,3.83,0.75,0.71,0,*7A
1496848084.66,20978,19.25,73862.5,3.83,0.71,0.71,0,*71
1496848085.88,20979,19.25,73862.8,3.85,0.79,0.87,0,*77
1496848087.09,20980,19.25,73860.3,3.83,0.87,0.97,0,*77
1496848088.29,20981,19.25,73862.0,3.85,0.91,1.01,0,*49
1496848089.46,20982,19.25,73862.5,3.85,0.97,1.01,0,*4C
1496848090.63,20983,19.25,73862.8,3.85,0.97,1.01,0,*4D
1496848091.83,20984,19.25,73864.3,3.85,0.97,1.09,0,*42
1496848093.06,20985,19.25,73860.0,3.87,1.13,1.05,0,*70
1496848094.29,20986,19.25,73866.8,3.87,1.05,1.13,0,*73
1496848095.5,20987,19.25,73862.3,3.89,1.13,1.05,0,*7C
1496848096.71,20988,19.25,73866.3,3.89,1.13,1.05,0,*73
1496848097.94,20989,19.25,73862.5,3.89,1.13,1.13,0,*75
1496848099.15,20990,19.25,73860.0,3.89,1.05,1.13,0,*7A
1496848100.38,20991,19.25,73864.5,3.89,1.13,1.13,0,*7C
1496848101.61,20992,19.25,73860.8,3.93,1.17,1.29,0,*79
1496848102.86,20993,19.25,73864.3,3.95,1.13,1.25,0,*76
1496848104.09,20994,19.25,73860.8,3.93,1.17,1.21,0,*77
1496848105.35,20995,19.25,73864.3,3.95,1.21,1.13,0,*74
1496848106.6,20996,19.25,73864.0,3.95,1.13,1.13,0,*76
1496848107.86,20997,19.25,73860.3,3.95,1.21,1.25,0,*73
1496848109.12,20998,19.25,73862.5,3.97,1.21,1.25,0,*7E
1496848110.35,20999,19.25,73860.3,3.99,1.25,1.29,0,*79
1496848111.59,21000,19.25,73864.3,3.99,1.17,1.25,0,*7C
1496848112.82,21001,19.25,73862.0,3.97,1.01,1.13,0,*71
1496848114.05,21002,19.25,73862.8,3.99,0.91,0.91,0,*7F
1496848115.27,21003,19.25,73864.8,3.99,0.87,0.79,0,*7F
1496848116.47,21004,19.25,73862.5,3.97,0.97,0.97,0,*77
1496848117.68,21005,19.25,73864.0,3.99,1.01,1.13,0,*7B
1496848118.89,21006,19.25,73866.5,3.99,1.05,1.13,0,*7C
1496848120.13,21007,19.25,73866.3,3.99,1.13,1.13,0,*7A
1496848121.39,21008,19.25,73868.5,4.01,1.13,1.13,0,*73
1496848122.62,21009,19.25,73866.3,4.03,1.17,1.17,0,*70
1496848123.86,21010,19.25,73864.5,4.03,1.21,1.21,0,*78
1496848125.09,21011,19.25,73864.8,4.03,1.17,1.21,0,*7C
1496848126.32,21012,19.25,73860.5,4.03,1.09,1.17,0,*75
1496848127.55,21013,19.25,73864.0,4.03,1.09,1.21,0,*71